User: anonymous   Login
Location: Bukit Nyuki
(2.5885°N, 113.7476°E)
Time: 21:51:05
(UTC+00:00)
Language:

H-2A R/B - Orbit

View from above orbital plane
View from above orbital plane
View from above satellite
View from above satellite

Ground track
Ground track

The orbit data is extracted from the following two-line orbital elements,

1 36105U 09066B   21071.17865018 0.00001334  00000-0  69881-4 0    03
2 36105  97.2960  67.0688 0027101 279.4955  80.4848 15.15523552    03
Epoch (UTC): 12 March 2021 04:17:15
Eccentricity: 0.0027101
inclination: 97.2960°
perigee height: 501 km
apogee height: 538 km
right ascension of ascending node: 67.0688°
argument of perigee: 279.4955°
revolutions per day: 15.15523552
mean anomaly at epoch: 80.4848°
orbit number at epoch: 0

The dashed part of the orbit path shows where the satellite is in the earth's shadow,  

DLR